TimePDT,TemperatureF,Dew PointF,Humidity,Sea Level PressureIn,VisibilityMPH,Wind Direction,Wind SpeedMPH,Gust SpeedMPH,PrecipitationIn,Events,Conditions,WindDirDegrees,DateUTC
12:53 AM,46.9,35.1,63,29.94,10.0,Calm,Calm,-,N/A,,Clear,0,2012-10-08 07:53:00
1:53 AM,44.1,35.1,71,29.95,10.0,Calm,Calm,-,N/A,,Clear,0,2012-10-08 08:53:00
2:53 AM,43.0,36.0,76,29.96,10.0,Calm,Calm,-,N/A,,Clear,0,2012-10-08 09:53:00
3:53 AM,41.0,35.1,79,29.95,10.0,Calm,Calm,-,N/A,,Clear,0,2012-10-08 10:53:00
4:53 AM,39.0,35.1,86,29.96,10.0,Calm,Calm,-,N/A,,Clear,0,2012-10-08 11:53:00
5:53 AM,37.9,35.1,89,29.98,10.0,Calm,Calm,-,N/A,,Clear,0,2012-10-08 12:53:00
6:53 AM,37.0,34.0,89,29.99,10.0,Calm,Calm,-,N/A,,Clear,0,2012-10-08 13:53:00
7:53 AM,37.9,35.1,89,30.01,10.0,Calm,Calm,-,N/A,,Clear,0,2012-10-08 14:53:00
8:53 AM,45.0,37.0,74,30.01,9.0,Calm,Calm,-,N/A,,Clear,0,2012-10-08 15:53:00
9:53 AM,51.1,37.9,61,30.01,10.0,Calm,Calm,-,N/A,,Clear,0,2012-10-08 16:53:00
10:53 AM,57.0,37.9,49,30.01,10.0,SW,3.5,-,N/A,,Clear,220,2012-10-08 17:53:00
11:53 AM,60.1,39.0,46,30.01,10.0,SW,6.9,-,N/A,,Clear,230,2012-10-08 18:53:00
12:53 PM,63.0,37.9,40,30.00,10.0,SSW,3.5,-,N/A,,Clear,200,2012-10-08 19:53:00
1:53 PM,66.0,39.0,37,29.99,10.0,Variable,3.5,-,N/A,,Clear,0,2012-10-08 20:53:00
2:53 PM,68.0,37.9,33,29.97,10.0,Calm,Calm,-,N/A,,Clear,0,2012-10-08 21:53:00
3:53 PM,69.1,35.1,29,29.97,10.0,Calm,Calm,-,N/A,,Clear,0,2012-10-08 22:53:00
4:53 PM,69.1,37.0,31,29.96,10.0,SW,5.8,-,N/A,,Clear,220,2012-10-08 23:53:00
5:53 PM,68.0,37.9,33,29.97,10.0,Calm,Calm,-,N/A,,Clear,0,2012-10-09 00:53:00
6:53 PM,62.1,39.9,44,29.97,10.0,Calm,Calm,-,N/A,,Clear,0,2012-10-09 01:53:00
7:53 PM,57.0,42.1,57,29.99,9.0,Calm,Calm,-,N/A,,Clear,0,2012-10-09 02:53:00
8:53 PM,55.0,45.0,69,30.00,10.0,South,4.6,-,N/A,,Clear,190,2012-10-09 03:53:00
9:53 PM,52.0,45.0,77,30.03,10.0,SSW,3.5,-,N/A,,Clear,200,2012-10-09 04:53:00
10:53 PM,50.0,45.0,83,30.04,10.0,Calm,Calm,-,N/A,,Clear,0,2012-10-09 05:53:00
11:53 PM,48.9,44.1,83,30.06,10.0,Calm,Calm,-,N/A,,Clear,0,2012-10-09 06:53:00